• In Hungary
  • List of Countries
  • For 7 days
  • Water Temperature
  • Satellite Maps
  • Weather Map
  • News
  • Weather Widgets
  • user-avatar
    Login

    Hourly Weather Kulaksay

    Today, 19 June, Tuesday

    Time Temperature Precipitation Wind Pressure Humidity
    00:00 +15°C° 0 mm 2 mps 744 mmHg 84%
    01:00 +14°C° 0 mm 2 mps 744 mmHg 86%
    02:00 +14°C° 0 mm 2 mps 744 mmHg 87%
    03:00 +14°C° 0 mm 2 mps 744 mmHg 88%
    04:00 +14°C° 0 mm 2 mps 744 mmHg 89%
    05:00 +15°C° 0 mm 2 mps 744 mmHg 85%
    06:00 +17°C° 0 mm 3 mps 744 mmHg 80%
    07:00 +18°C° 0 mm 3 mps 744 mmHg 76%
    08:00 +20°C° 0 mm 3 mps 744 mmHg 70%
    09:00 +21°C° 0 mm 3 mps 744 mmHg 63%
    10:00 +23°C° 0 mm 4 mps 744 mmHg 57%
    11:00 +25°C° 0 mm 4 mps 744 mmHg 53%
    12:00 +26°C° 0 mm 4 mps 744 mmHg 49%
    13:00 +26°C° 0 mm 4 mps 744 mmHg 46%
    14:00 +26°C° 0 mm 4 mps 744 mmHg 45%
    15:00 +27°C° 0 mm 4 mps 744 mmHg 45%
    16:00 +27°C° 0 mm 4 mps 744 mmHg 45%
    17:00 +26°C° 0 mm 4 mps 744 mmHg 48%
    18:00 +26°C° 0 mm 3 mps 744 mmHg 51%
    19:00 +25°C° 0 mm 3 mps 744 mmHg 54%
    20:00 +24°C° 0 mm 3 mps 744 mmHg 58%
    21:00 +21°C° 0 mm 2 mps 745 mmHg 61%
    22:00 +19°C° 0 mm 2 mps 745 mmHg 65%
    23:00 +19°C° 0 mm 2 mps 745 mmHg 66%

    Tomorrow, 20 June, Wednesday

    Time Temperature Precipitation Wind Pressure Humidity
    00:00 +19°C° 0 mm 2 mps 745 mmHg 67%
    01:00 +18°C° 0 mm 2 mps 745 mmHg 68%
    02:00 +18°C° 0 mm 2 mps 745 mmHg 71%
    03:00 +17°C° 0 mm 2 mps 745 mmHg 73%
    04:00 +17°C° 0 mm 2 mps 745 mmHg 75%
    05:00 +18°C° 0 mm 2 mps 745 mmHg 71%
    06:00 +20°C° 0 mm 2 mps 745 mmHg 67%
    07:00 +21°C° 0 mm 2 mps 745 mmHg 63%
    08:00 +24°C° 0 mm 3 mps 745 mmHg 58%
    09:00 +25°C° 0 mm 3 mps 745 mmHg 52%
    10:00 +27°C° 0 mm 4 mps 745 mmHg 46%
    11:00 +27°C° 0 mm 4 mps 745 mmHg 47%
    12:00 +27°C° 0 mm 4 mps 745 mmHg 47%
    13:00 +26°C° 0 mm 4 mps 745 mmHg 48%
    14:00 +27°C° 0 mm 5 mps 745 mmHg 46%
    15:00 +27°C° 0 mm 5 mps 744 mmHg 45%
    16:00 +28°C° 0 mm 5 mps 744 mmHg 43%
    17:00 +27°C° 0 mm 5 mps 744 mmHg 45%
    18:00 +27°C° 0 mm 4 mps 744 mmHg 48%
    19:00 +26°C° 0 mm 3 mps 743 mmHg 50%
    20:00 +25°C° 0 mm 4 mps 743 mmHg 52%
    21:00 +23°C° 0 mm 4 mps 743 mmHg 53%
    22:00 +22°C° 0 mm 4 mps 743 mmHg 55%
    23:00 +21°C° 0.1 mm 5 mps 743 mmHg 58%

    Day after tomorrow, 21 June, Thursday

    Time Temperature Precipitation Wind Pressure Humidity
    00:00 +21°C° 0.1 mm 5 mps 743 mmHg 62%
    01:00 +21°C° 0.1 mm 5 mps 743 mmHg 65%
    02:00 +20°C° 0 mm 5 mps 743 mmHg 74%
    03:00 +19°C° 0 mm 4 mps 743 mmHg 83%
    04:00 +18°C° 0 mm 4 mps 743 mmHg 91%
    05:00 +18°C° 0 mm 4 mps 743 mmHg 84%
    06:00 +19°C° 0 mm 4 mps 744 mmHg 77%
    07:00 +19°C° 0 mm 4 mps 744 mmHg 70%
    08:00 +20°C° 0 mm 4 mps 744 mmHg 62%
    09:00 +22°C° 0 mm 5 mps 744 mmHg 53%
    10:00 +23°C° 0 mm 6 mps 744 mmHg 45%
    11:00 +23°C° 0 mm 6 mps 744 mmHg 42%
    12:00 +24°C° 0 mm 6 mps 744 mmHg 40%
    13:00 +24°C° 0 mm 6 mps 744 mmHg 37%
    14:00 +26°C° 0 mm 6 mps 744 mmHg 38%
    15:00 +26°C° 0 mm 7 mps 744 mmHg 38%
    16:00 +26°C° 0 mm 7 mps 744 mmHg 38%
    17:00 +24°C° 0 mm 6 mps 744 mmHg 42%
    18:00 +23°C° 0 mm 5 mps 744 mmHg 47%
    19:00 +23°C° 0 mm 4 mps 744 mmHg 51%
    20:00 +21°C° 0 mm 4 mps 744 mmHg 55%
    21:00 +20°C° 0 mm 3 mps 745 mmHg 59%
    22:00 +18°C° 0 mm 3 mps 745 mmHg 63%
    23:00 +18°C° 0 mm 3 mps 745 mmHg 66%

    22 June, Friday

    Time Temperature Precipitation Wind Pressure Humidity
    00:00 +17°C° 0 mm 3 mps 745 mmHg 70%
    01:00 +16°C° 0 mm 3 mps 745 mmHg 73%
    02:00 +14°C° 0 mm 3 mps 745 mmHg 75%
    03:00 +14°C° 0 mm 3 mps 745 mmHg 76%
    04:00 +13°C° 0 mm 3 mps 745 mmHg 78%
    05:00 +14°C° 0 mm 3 mps 746 mmHg 73%
    06:00 +17°C° 0 mm 4 mps 746 mmHg 69%
    07:00 +18°C° 0 mm 4 mps 746 mmHg 64%
    08:00 +19°C° 0 mm 5 mps 746 mmHg 57%
    09:00 +21°C° 0 mm 5 mps 746 mmHg 49%
    10:00 +22°C° 0 mm 5 mps 746 mmHg 42%
    11:00 +23°C° 0 mm 6 mps 746 mmHg 41%
    12:00 +23°C° 0 mm 6 mps 746 mmHg 39%
    13:00 +24°C° 0 mm 6 mps 746 mmHg 38%
    14:00 +24°C° 0 mm 6 mps 746 mmHg 39%
    15:00 +24°C° 0 mm 7 mps 746 mmHg 39%
    16:00 +24°C° 0 mm 7 mps 746 mmHg 39%
    17:00 +24°C° 0 mm 6 mps 746 mmHg 44%
    18:00 +23°C° 0 mm 5 mps 746 mmHg 48%
    19:00 +22°C° 0 mm 4 mps 746 mmHg 52%
    20:00 +20°C° 0 mm 4 mps 747 mmHg 57%
    21:00 +19°C° 0 mm 3 mps 747 mmHg 61%
    22:00 +17°C° 0 mm 3 mps 747 mmHg 65%
    23:00 +16°C° 0 mm 3 mps 747 mmHg 68%

    23 June, Saturday

    Time Temperature Precipitation Wind Pressure Humidity
    00:00 +16°C° 0 mm 2 mps 747 mmHg 71%
    01:00 +15°C° 0 mm 2 mps 747 mmHg 73%
    02:00 +14°C° 0 mm 2 mps 747 mmHg 75%
    03:00 +14°C° 0 mm 2 mps 747 mmHg 77%
    04:00 +14°C° 0 mm 2 mps 748 mmHg 79%
    05:00 +14°C° 0 mm 3 mps 748 mmHg 75%
    06:00 +16°C° 0 mm 3 mps 748 mmHg 71%
    07:00 +18°C° 0 mm 4 mps 748 mmHg 67%
    08:00 +19°C° 0 mm 4 mps 748 mmHg 59%
    09:00 +21°C° 0 mm 4 mps 748 mmHg 52%
    10:00 +23°C° 0 mm 4 mps 748 mmHg 45%
    11:00 +23°C° 0 mm 4 mps 748 mmHg 42%
    12:00 +25°C° 0 mm 5 mps 748 mmHg 39%
    13:00 +26°C° 0 mm 5 mps 748 mmHg 36%
    14:00 +27°C° 0 mm 5 mps 747 mmHg 36%
    15:00 +27°C° 0 mm 5 mps 747 mmHg 37%
    16:00 +27°C° 0 mm 5 mps 747 mmHg 37%
    17:00 +26°C° 0 mm 5 mps 747 mmHg 42%
    18:00 +26°C° 0 mm 4 mps 747 mmHg 46%
    19:00 +25°C° 0 mm 3 mps 747 mmHg 51%
    20:00 +22°C° 0 mm 3 mps 747 mmHg 56%
    21:00 +21°C° 0 mm 3 mps 748 mmHg 62%
    22:00 +19°C° 0 mm 2 mps 748 mmHg 67%
    23:00 +18°C° 0 mm 2 mps 748 mmHg 71%

    24 June, Sunday

    Time Temperature Precipitation Wind Pressure Humidity
    00:00 +18°C° 0 mm 2 mps 748 mmHg 74%
    01:00 +17°C° 0 mm 2 mps 748 mmHg 77%
    02:00 +17°C° 0 mm 2 mps 748 mmHg 79%
    03:00 +16°C° 0 mm 2 mps 748 mmHg 81%
    04:00 +16°C° 0 mm 2 mps 748 mmHg 83%
    05:00 +17°C° 0 mm 3 mps 748 mmHg 78%
    06:00 +18°C° 0 mm 3 mps 748 mmHg 73%
    07:00 +20°C° 0 mm 3 mps 749 mmHg 68%
    08:00 +21°C° 0 mm 3 mps 749 mmHg 61%
    09:00 +24°C° 0 mm 3 mps 749 mmHg 53%
    10:00 +26°C° 0 mm 3 mps 749 mmHg 45%
    11:00 +27°C° 0 mm 3 mps 749 mmHg 42%
    12:00 +28°C° 0 mm 3 mps 749 mmHg 38%
    13:00 +29°C° 0 mm 3 mps 749 mmHg 35%
    14:00 +29°C° 0 mm 3 mps 749 mmHg 35%
    15:00 +29°C° 0 mm 3 mps 749 mmHg 34%
    16:00 +30°C° 0 mm 3 mps 748 mmHg 33%
    17:00 +29°C° 0 mm 3 mps 748 mmHg 37%
    18:00 +28°C° 0 mm 3 mps 749 mmHg 41%
    19:00 +28°C° 0 mm 2 mps 749 mmHg 46%
    20:00 +26°C° 0 mm 2 mps 749 mmHg 51%
    21:00 +24°C° 0 mm 2 mps 749 mmHg 56%
    22:00 +22°C° 0 mm 1 mps 749 mmHg 61%
    23:00 +22°C° 0 mm 1 mps 749 mmHg 64%
    Show more